COSMOS 1275 DEB, 12720

Orbit data source: Space-Track

COSMOS 1275 DEB, 12720 is space debris in LEO originally from a launch on Thu, 04 Jun 1981 UTC launched from the Plesetsk Missile And Space Complex (PKMTR). Debris objects in space refer to the collection of defunct objects orbiting the Earth. Examples of debris include non-operational satellites, rocket bodies, and fragments generated from explosions, collisions, or faulty payload assembly.

Loading next visibility...
Identifier
12720, 1981-053BM
Orbit
LEO
Country
Flag of CISCIS
Related business
Manufacturer
Unknown
Mission
Spacecraft
Bus & Motor
Unknown
Mass
Unknown
Launch date (UTC)
1981-06-04 (45 years ago)
Launch vehicle
Unknown
Launch site
Plesetsk Missile And Space Complex (PKMTR)
Object type
Payload
Rocket body
Debris
Shape & HBR
Unknown shape, 0.1 m
Radar Cross Section
Small (<0.1 m²)

Expand to show TLE details & history
Last TLE update: 8 hours ago

TLE from 8 hours ago
0 COSMOS 1275 DEB
1 12720U 81053BM  25340.65599444  .00002496  00000-0  20106-2 0  9991
2 12720  83.2516 207.5493 0112634   6.3385  47.8296 13.87184730 82942
Epoch: 2025-12-06T15:44Z
TLE epoch observation values (Epoch: 2025-12-06T15:44:37.919Z)
Latitude
54.66668°
Longitude
-94.73171°
Altitude
892.731 km
Speed
7.439 km/s
True Right ascension
14h 28m 25s
True Declination
54° 30' 26"
Sunlit
Object was in daylight at epoch
Visualization orbit readout
Latitude
Unknown
Longitude
Unknown
Altitude
Unknown
Speed
Unknown
Apparent Right ascension
Unknown
Apparent Declination
Unknown
Sunlit
N/A
Visualization observer readout
Local Sidereal Time
21:55:25
Azimuth
Unknown
Elevation
Unknown
Doppler factor
Unknown
Orbital elements
Apogee altitude
1,018.011 km
Perigee altitude
853.255 km
Semi-major axis
7,313.77 km
Eccentricity
0.01126
Inclination
83.2516°
RAAN
207.5493°
Arg. of periapsis
6.3385°
True anomaly
48.79528°
Mean anomaly
47.8296°
Eccentric anomaly
48.31153°
Mean motion
3.47001 °/min
Orbital period
103.75 mins
BSTAR
0.0020106
Loading maneuver chart data...
Computing Atmospheric mass density...
Loading historical data...
Loading historical data...
Loading historical data...
Loading historical data...
Loading historical data...
Loading historical data...
Loading historical data...

Documentation

Showing up to 5 results
|